Weston, WY

3:02 AM MST on February 12, 2016 (GMT -0700)
Gillette-Campbell County

Weather History for KGCC - January, 2013

Change the Weather History Date:

Friday, January 4, 2013

  Actual Average Record
Temperature  
Mean Temperature 29 °F 25 °F  
Max Temperature 37 °F 37 °F 47 °F (2016)
Min Temperature 21 °F 14 °F -8 °F (2015)
Degree Days  
Heating Degree Days 36 40  
Month to date heating degree days 176 160  
Since 1 July heating degree days 3016 3301  
Cooling Degree Days 0 0  
Month to date cooling degree days 0 0  
Year to date cooling degree days 0 0  
Moisture  
Dew Point 11 °F    
Average Humidity 53    
Maximum Humidity 68    
Minimum Humidity 38    
Precipitation  
Precipitation 0.00 in 0.01 in 0.00 in (2016)
Month to date precipitation 0.04 0.04  
Year to date precipitation 0.04 0.04  
Sea Level Pressure  
Sea Level Pressure 30.16 in    
Wind  
Wind Speed 7 mph (WSW)    
Max Wind Speed 16 mph    
Max Gust Speed 18 mph    
Visibility 10 miles    
Events      
T = Trace of Precipitation, MM = Missing Value Source: NWS Daily Summary

Daily Weather History Graph

Daily Weather History Graph

Search for Another Location

Airport or City:

Trip Planner

Search our weather history database for the weather conditions in past years. The results will help you decide how hot, cold, wet, or windy it might be!

Date:

Astronomy

Jan. 04, 2013 Rise Set
Actual Time 7:38 AM MST 4:36 PM MST
Civil Twilight 7:05 AM MST 5:09 PM MST
Nautical Twilight 6:28 AM MST 5:46 PM MST
Astronomical Twilight 5:53 AM MST 6:21 PM MST
Moon No Moon Rise 11:04 AM MST (1/4)
Length of Visible Light 10h 04m
Length of Day
8h 58m
Waning Gibbous, 54% of the Moon is Illuminated
Jan 4
Waning Gibbous
Jan 4
Last Quarter
Jan 11
New
Jan 18
First Quarter
Jan 26
Full

Hourly Weather History & Observations

Time (MST) Temp. Windchill Dew Point Humidity Pressure Visibility Wind Dir Wind Speed Gust Speed Precip Events Conditions
12:53 AM 25.0 °F 19.3 °F 5.0 °F 43% 30.20 in 10.0 mi SSW 4.6 mph - N/A   Clear
1:53 AM 26.1 °F 19.4 °F 5.0 °F 41% 30.20 in 10.0 mi South 5.8 mph - N/A   Clear
2:53 AM 26.1 °F 21.9 °F 5.0 °F 41% 30.19 in 10.0 mi South 3.5 mph - N/A   Clear
3:53 AM 25.0 °F 19.3 °F 6.1 °F 45% 30.19 in 10.0 mi SSW 4.6 mph - N/A   Clear
4:53 AM 26.1 °F 18.4 °F 6.1 °F 43% 30.18 in 10.0 mi SSW 6.9 mph - N/A   Clear
5:53 AM 26.1 °F - 7.0 °F 44% 30.17 in 10.0 mi Calm Calm - N/A   Clear
6:53 AM 28.0 °F 18.6 °F 7.0 °F 41% 30.16 in 10.0 mi SSW 10.4 mph - N/A   Clear
7:53 AM 26.1 °F 16.2 °F 8.1 °F 47% 30.15 in 10.0 mi SSW 10.4 mph - N/A   Clear
8:53 AM 30.9 °F 22.8 °F 9.0 °F 40% 30.12 in 10.0 mi South 9.2 mph - N/A   Clear
9:53 AM 34.0 °F - 10.0 °F 37% 30.17 in 10.0 mi Calm Calm - N/A   Clear
10:53 AM 30.9 °F - 10.9 °F 43% 30.19 in 10.0 mi Calm Calm - N/A   Clear
11:53 AM 30.9 °F 24.3 °F 15.1 °F 52% 30.16 in 10.0 mi WSW 6.9 mph - N/A   Clear
12:53 PM 36.0 °F 29.6 °F 16.0 °F 44% 30.11 in 10.0 mi West 8.1 mph - N/A   Clear
1:53 PM 36.0 °F 30.3 °F 18.0 °F 48% 30.11 in 10.0 mi West 6.9 mph - N/A   Clear
2:53 PM 35.1 °F 28.6 °F 17.1 °F 48% 30.11 in 10.0 mi West 8.1 mph - N/A   Clear
3:53 PM 28.9 °F 22.8 °F 16.0 °F 58% 30.15 in 10.0 mi West 5.8 mph - N/A   Clear
4:53 PM 23.0 °F 13.9 °F 12.9 °F 65% 30.16 in 10.0 mi West 8.1 mph - N/A   Clear
5:53 PM 26.1 °F 16.2 °F 14.0 °F 60% 30.17 in 10.0 mi West 10.4 mph - N/A   Clear
6:53 PM 25.0 °F 14.8 °F 12.9 °F 60% 30.17 in 10.0 mi West 10.4 mph - N/A   Clear
7:53 PM 25.0 °F 14.8 °F 12.0 °F 58% 30.16 in 10.0 mi WSW 10.4 mph - N/A   Clear
8:53 PM 21.9 °F 11.0 °F 12.0 °F 66% 30.16 in 10.0 mi West 10.4 mph - N/A   Clear
9:53 PM 23.0 °F 12.4 °F 12.9 °F 65% 30.15 in 10.0 mi West 10.4 mph - N/A   Clear
10:53 PM 25.0 °F 13.1 °F 12.9 °F 60% 30.16 in 10.0 mi West 13.8 mph - N/A   Clear
11:53 PM 23.0 °F 11.1 °F 12.9 °F 65% 30.17 in 10.0 mi West 12.7 mph - N/A   Clear